Time,TemperatureF,DewpointF,PressureIn,WindDirection,WindDirectionDegrees,WindSpeedMPH,WindSpeedGustMPH,Humidity,HourlyPrecipIn,Conditions,Clouds,dailyrainin,SoftwareType,DateUTC
2013-01-07 00:00:00,19.6,17.7,30.14,NNE,20,3.4,7.3,92,0.12,,OVC,0.00,VWS V14.00,2013-01-07 05:00:00,
2013-01-07 00:02:00,19.6,17.7,30.14,NNE,20,3.4,7.3,92,0.12,,OVC,0.00,VWS V14.00,2013-01-07 05:02:00,
2013-01-07 00:05:00,19.6,17.7,30.14,NNE,20,3.4,7.3,92,0.12,,OVC,0.00,VWS V14.00,2013-01-07 05:05:00,
2013-01-07 00:10:00,19.6,17.7,30.14,NNE,20,3.4,7.3,92,0.12,,OVC,0.00,VWS V14.00,2013-01-07 05:10:00,
2013-01-07 06:31:00,11.9,8.9,30.39,WNW,285,0.0,7.3,87,0.11,,OVC,0.00,VWS V14.00,2013-01-07 11:31:00,
2013-01-07 06:32:00,11.9,8.9,30.39,WNW,285,0.0,7.3,87,0.11,,OVC,0.00,VWS V14.00,2013-01-07 11:32:00,
2013-01-07 06:36:00,11.9,8.9,30.39,WNW,285,0.0,7.3,87,0.11,,OVC,0.00,VWS V14.00,2013-01-07 11:36:00,
2013-01-07 06:41:00,11.9,8.9,30.39,WNW,285,0.0,7.3,87,0.11,,OVC,0.00,VWS V14.00,2013-01-07 11:41:00,
2013-01-07 06:51:00,11.5,8.9,30.40,WNW,285,0.0,7.3,89,0.11,,OVC,0.00,VWS V14.00,2013-01-07 11:51:00,
2013-01-07 06:56:00,11.4,8.8,30.41,NNW,342,0.0,7.3,89,0.10,,OVC,0.00,VWS V14.00,2013-01-07 11:56:00,
2013-01-07 07:00:00,11.3,8.4,30.41,WNW,298,2.1,7.3,88,0.10,,SCT,0.00,VWS V14.00,2013-01-07 12:00:00,
2013-01-07 07:01:00,11.3,8.4,30.41,NW,322,0.4,2.1,88,0.10,,OVC,0.00,VWS V14.00,2013-01-07 12:01:00,
2013-01-07 07:07:00,11.3,8.4,30.41,NW,322,0.4,2.1,88,0.10,,OVC,0.00,VWS V14.00,2013-01-07 12:07:00,
2013-01-07 07:15:00,10.9,8.1,30.42,NW,316,0.0,0.0,88,0.00,,OVC,0.00,VWS V14.00,2013-01-07 12:15:00,
2013-01-07 07:20:00,10.8,8.1,30.42,NNW,340,2.5,4.1,88,0.00,,OVC,0.00,VWS V14.00,2013-01-07 12:20:00,
2013-01-07 07:25:00,10.5,7.8,30.43,NW,309,2.2,4.3,89,0.00,,OVC,0.00,VWS V14.00,2013-01-07 12:25:00,
2013-01-07 07:30:00,10.5,7.9,30.43,West,274,2.1,4.0,89,0.00,,OVC,0.00,VWS V14.00,2013-01-07 12:30:00,
2013-01-07 07:35:00,10.3,7.6,30.43,WNW,294,2.4,4.3,89,0.00,,OVC,0.00,VWS V14.00,2013-01-07 12:35:00,
2013-01-07 07:40:00,10.1,7.5,30.43,NW,315,1.0,4.3,89,0.00,,OVC,0.00,VWS V14.00,2013-01-07 12:40:00,
2013-01-07 07:45:00,9.6,6.9,30.44,West,273,0.0,4.3,89,0.00,,OVC,0.00,VWS V14.00,2013-01-07 12:45:00,
2013-01-07 07:50:00,9.6,6.9,30.44,West,273,0.0,4.3,88,0.00,,OVC,0.00,VWS V14.00,2013-01-07 12:50:00,
2013-01-07 07:55:00,9.2,6.4,30.44,WNW,284,3.6,4.6,88,0.00,,OVC,0.00,VWS V14.00,2013-01-07 12:55:00,
2013-01-07 08:00:00,9.1,6.2,30.44,NW,308,2.5,4.2,88,0.00,,OVC,0.00,VWS V14.00,2013-01-07 13:00:00,
2013-01-07 08:05:00,9.2,6.4,30.44,NW,307,0.0,4.2,88,0.00,,OVC,0.00,VWS V14.00,2013-01-07 13:05:00,
2013-01-07 08:10:00,9.3,6.5,30.44,NW,307,0.0,4.2,88,0.00,,OVC,0.00,VWS V14.00,2013-01-07 13:10:00,
2013-01-07 08:15:00,9.2,6.5,30.44,NW,307,0.0,4.2,88,0.00,,OVC,0.00,VWS V14.00,2013-01-07 13:15:00,
2013-01-07 08:20:00,9.2,6.4,30.45,NW,307,0.0,4.2,88,0.00,,OVC,0.00,VWS V14.00,2013-01-07 13:20:00,
2013-01-07 08:25:00,9.0,6.1,30.45,NW,307,0.0,4.2,88,0.00,,OVC,0.00,VWS V14.00,2013-01-07 13:25:00,
2013-01-07 08:30:00,9.2,6.2,30.45,NW,307,0.0,0.0,88,0.00,,OVC,0.00,VWS V14.00,2013-01-07 13:30:00,
2013-01-07 08:35:00,9.3,6.4,30.45,NW,307,0.0,0.0,88,0.00,,OVC,0.00,VWS V14.00,2013-01-07 13:35:00,
2013-01-07 08:40:00,9.3,6.4,30.45,NW,307,0.0,0.0,88,0.00,,OVC,0.00,VWS V14.00,2013-01-07 13:40:00,
2013-01-07 08:45:00,9.7,6.8,30.45,NW,307,0.0,0.0,88,0.00,,OVC,0.00,VWS V14.00,2013-01-07 13:45:00,
2013-01-07 08:50:00,9.7,6.8,30.45,NW,307,0.0,0.0,88,0.00,,OVC,0.00,VWS V14.00,2013-01-07 13:50:00,
2013-01-07 08:55:00,9.6,6.7,30.45,NW,307,0.0,0.0,88,0.00,,OVC,0.00,VWS V14.00,2013-01-07 13:55:00,
2013-01-07 09:00:00,9.7,6.8,30.46,NW,307,0.0,0.0,88,0.00,,OVC,0.00,VWS V14.00,2013-01-07 14:00:00,
2013-01-07 09:05:00,9.9,7.0,30.46,NW,307,0.0,0.0,88,0.00,,OVC,0.00,VWS V14.00,2013-01-07 14:05:00,
2013-01-07 09:10:00,10.3,7.5,30.46,NW,307,0.0,0.0,88,0.00,,OVC,0.00,VWS V14.00,2013-01-07 14:10:00,
2013-01-07 09:15:00,10.4,7.6,30.46,NW,307,0.0,0.0,88,0.00,,OVC,0.00,VWS V14.00,2013-01-07 14:15:00,
2013-01-07 09:20:00,10.3,7.5,30.46,NW,307,0.0,0.0,88,0.00,,OVC,0.00,VWS V14.00,2013-01-07 14:20:00,
2013-01-07 09:25:00,10.6,7.8,30.46,NW,307,0.0,0.0,88,0.00,,OVC,0.00,VWS V14.00,2013-01-07 14:25:00,
2013-01-07 09:30:00,10.5,7.7,30.46,NW,307,0.0,0.0,88,0.00,,OVC,0.00,VWS V14.00,2013-01-07 14:30:00,
2013-01-07 09:35:00,10.4,7.6,30.47,NW,307,0.0,0.0,88,0.00,,OVC,0.00,VWS V14.00,2013-01-07 14:35:00,
2013-01-07 09:40:00,10.2,7.5,30.47,West,271,0.0,3.5,89,0.00,,OVC,0.00,VWS V14.00,2013-01-07 14:40:00,
2013-01-07 09:45:00,10.2,7.4,30.48,West,271,0.0,3.5,88,0.00,,OVC,0.00,VWS V14.00,2013-01-07 14:45:00,
2013-01-07 09:50:00,10.3,7.6,30.47,West,271,0.0,3.5,89,0.00,,OVC,0.00,VWS V14.00,2013-01-07 14:50:00,
2013-01-07 09:56:00,10.5,7.8,30.48,West,271,0.0,3.5,89,0.00,,OVC,0.00,VWS V14.00,2013-01-07 14:56:00,
2013-01-07 10:00:00,10.5,7.8,30.48,West,271,0.0,3.5,88,0.00,,SCT,0.00,VWS V14.00,2013-01-07 15:00:00,
2013-01-07 10:01:00,10.4,7.6,30.48,West,271,0.0,0.0,88,0.00,,OVC,0.00,VWS V14.00,2013-01-07 15:01:00,
2013-01-07 10:06:00,10.3,7.5,30.48,West,271,0.0,0.0,88,0.00,,OVC,0.00,VWS V14.00,2013-01-07 15:06:00,
2013-01-07 10:11:00,10.4,7.6,30.48,WSW,255,0.0,1.7,88,0.00,,OVC,0.00,VWS V14.00,2013-01-07 15:11:00,
2013-01-07 10:16:00,10.5,7.8,30.48,WSW,255,0.0,1.7,88,0.00,,OVC,0.00,VWS V14.00,2013-01-07 15:16:00,
2013-01-07 10:21:00,10.7,7.9,30.48,WSW,255,0.0,1.7,88,0.00,,OVC,0.00,VWS V14.00,2013-01-07 15:21:00,
2013-01-07 10:26:00,10.7,7.8,30.49,WSW,255,0.0,1.7,88,0.00,,OVC,0.00,VWS V14.00,2013-01-07 15:26:00,
2013-01-07 10:30:00,10.6,7.7,30.49,WSW,255,0.0,1.7,88,0.00,,SCT,0.00,VWS V14.00,2013-01-07 15:30:00,
2013-01-07 10:31:00,10.9,8.1,30.49,WSW,255,0.0,0.0,88,0.00,,OVC,0.00,VWS V14.00,2013-01-07 15:31:00,
2013-01-07 10:36:00,10.9,8.1,30.49,WSW,255,0.0,0.0,88,0.00,,OVC,0.00,VWS V14.00,2013-01-07 15:36:00,
2013-01-07 10:41:00,10.9,8.0,30.48,WSW,255,0.0,0.0,88,0.00,,OVC,0.00,VWS V14.00,2013-01-07 15:41:00,
2013-01-07 10:46:00,11.1,8.2,30.48,WSW,255,0.0,0.0,88,0.00,,OVC,0.00,VWS V14.00,2013-01-07 15:46:00,
2013-01-07 10:51:00,11.3,8.4,30.47,WSW,255,0.0,0.0,88,0.00,,OVC,0.00,VWS V14.00,2013-01-07 15:51:00,
2013-01-07 10:56:00,11.7,8.8,30.48,WSW,255,0.0,0.0,88,0.00,,OVC,0.00,VWS V14.00,2013-01-07 15:56:00,
2013-01-07 11:00:00,11.7,8.8,30.48,WSW,255,0.0,0.0,88,0.00,,SCT,0.00,VWS V14.00,2013-01-07 16:00:00,
2013-01-07 11:01:00,11.9,9.0,30.48,WSW,255,0.0,0.0,88,0.00,,OVC,0.00,VWS V14.00,2013-01-07 16:01:00,
2013-01-07 11:06:00,12.2,9.2,30.47,WSW,255,0.0,0.0,88,0.00,,OVC,0.00,VWS V14.00,2013-01-07 16:06:00,
2013-01-07 11:11:00,12.4,9.4,30.47,WSW,255,0.0,0.0,88,0.00,,OVC,0.00,VWS V14.00,2013-01-07 16:11:00,
2013-01-07 11:16:00,12.5,9.6,30.47,WSW,255,0.0,0.0,88,0.00,,OVC,0.00,VWS V14.00,2013-01-07 16:16:00,
2013-01-07 11:21:00,13.0,10.1,30.47,WSW,255,0.0,0.0,88,0.00,,OVC,0.00,VWS V14.00,2013-01-07 16:21:00,
2013-01-07 11:26:00,12.9,9.9,30.47,WSW,255,0.0,0.0,87,0.00,,OVC,0.00,VWS V14.00,2013-01-07 16:26:00,
2013-01-07 11:30:00,12.8,9.7,30.47,WSW,255,0.0,0.0,87,0.00,,SCT,0.00,VWS V14.00,2013-01-07 16:30:00,
2013-01-07 11:31:00,12.7,9.7,30.47,WSW,255,0.0,0.0,87,0.00,,OVC,0.00,VWS V14.00,2013-01-07 16:31:00,
2013-01-07 11:36:00,12.8,9.8,30.46,WSW,255,0.0,0.0,88,0.00,,OVC,0.00,VWS V14.00,2013-01-07 16:36:00,
2013-01-07 11:41:00,12.9,10.0,30.46,WSW,255,0.0,0.0,88,0.00,,OVC,0.00,VWS V14.00,2013-01-07 16:41:00,
2013-01-07 11:46:00,13.2,10.3,30.45,WSW,255,0.0,0.0,88,0.00,,OVC,0.00,VWS V14.00,2013-01-07 16:46:00,
2013-01-07 11:51:00,13.2,10.3,30.45,WSW,255,0.0,0.0,88,0.00,,OVC,0.00,VWS V14.00,2013-01-07 16:51:00,
2013-01-07 11:56:00,13.1,10.2,30.45,WSW,255,0.0,0.0,88,0.00,,OVC,0.00,VWS V14.00,2013-01-07 16:56:00,
2013-01-07 12:00:00,13.4,10.5,30.45,WSW,255,0.0,0.0,88,0.00,,SCT,0.00,VWS V14.00,2013-01-07 17:00:00,
2013-01-07 12:01:00,13.7,10.9,30.44,WSW,255,0.0,0.0,88,0.00,,OVC,0.00,VWS V14.00,2013-01-07 17:01:00,
2013-01-07 12:06:00,13.8,10.9,30.44,WSW,255,0.0,0.0,88,0.00,,OVC,0.00,VWS V14.00,2013-01-07 17:06:00,
2013-01-07 12:11:00,14.0,11.2,30.44,WSW,255,0.0,0.0,88,0.00,,OVC,0.00,VWS V14.00,2013-01-07 17:11:00,
2013-01-07 12:16:00,14.2,11.4,30.44,WSW,255,0.0,0.0,88,0.00,,OVC,0.00,VWS V14.00,2013-01-07 17:16:00,
2013-01-07 12:21:00,14.2,11.3,30.44,SW,228,0.0,3.0,88,0.00,,OVC,0.00,VWS V14.00,2013-01-07 17:21:00,
2013-01-07 12:26:00,14.6,11.8,30.44,SW,228,0.0,3.0,88,0.00,,OVC,0.00,VWS V14.00,2013-01-07 17:26:00,
2013-01-07 12:30:00,14.7,11.9,30.44,SW,228,0.0,3.0,88,0.00,,SCT,0.00,VWS V14.00,2013-01-07 17:30:00,
2013-01-07 12:31:00,14.8,12.0,30.44,WSW,245,0.0,3.6,88,0.00,,OVC,0.00,VWS V14.00,2013-01-07 17:31:00,
2013-01-07 12:36:00,15.0,12.1,30.44,WSW,245,0.0,3.6,88,0.00,,OVC,0.00,VWS V14.00,2013-01-07 17:36:00,
2013-01-07 12:41:00,15.1,12.2,30.43,WSW,245,0.0,3.6,88,0.00,,OVC,0.00,VWS V14.00,2013-01-07 17:41:00,
2013-01-07 12:46:00,15.3,12.4,30.43,SW,235,2.9,4.0,88,0.00,,OVC,0.00,VWS V14.00,2013-01-07 17:46:00,
2013-01-07 12:51:00,15.4,12.5,30.44,SW,222,0.0,4.0,88,0.00,,OVC,0.00,VWS V14.00,2013-01-07 17:51:00,
2013-01-07 12:56:00,15.7,12.9,30.43,SW,222,0.0,4.0,88,0.00,,OVC,0.00,VWS V14.00,2013-01-07 17:56:00,
2013-01-07 13:00:00,15.8,13.0,30.43,SW,222,0.0,4.0,88,0.00,,SCT,0.00,VWS V14.00,2013-01-07 18:00:00,
2013-01-07 13:01:00,16.0,13.1,30.43,SW,222,0.0,0.0,88,0.00,,OVC,0.00,VWS V14.00,2013-01-07 18:01:00,
2013-01-07 13:06:00,16.1,13.2,30.43,SW,222,0.0,0.0,88,0.00,,OVC,0.00,VWS V14.00,2013-01-07 18:06:00,
2013-01-07 13:11:00,16.1,13.2,30.43,SW,222,0.0,0.0,88,0.00,,OVC,0.00,VWS V14.00,2013-01-07 18:11:00,
2013-01-07 13:16:00,16.1,13.2,30.43,SW,222,0.0,0.0,88,0.00,,OVC,0.00,VWS V14.00,2013-01-07 18:16:00,
2013-01-07 13:19:00,16.5,13.7,30.44,SW,222,0.0,0.0,88,0.00,,OVC,0.00,VWS V14.00,2013-01-07 18:19:00,
2013-01-07 13:21:00,16.5,13.7,30.44,SW,222,0.0,0.0,88,0.00,,OVC,0.00,VWS V14.00,2013-01-07 18:21:00,
2013-01-07 13:26:00,16.5,13.7,30.44,SW,222,0.0,0.0,88,0.00,,OVC,0.00,VWS V14.00,2013-01-07 18:26:00,
2013-01-07 13:36:00,17.3,14.5,30.43,WSW,243,0.0,0.0,89,0.00,,OVC,0.00,VWS V14.00,2013-01-07 18:36:00,
2013-01-07 13:50:00,17.8,15.0,30.43,SW,218,0.0,3.6,89,0.00,,OVC,0.00,VWS V14.00,2013-01-07 18:50:00,
2013-01-07 13:55:00,18.1,15.3,30.43,SW,218,0.0,3.6,89,0.00,,OVC,0.00,VWS V14.00,2013-01-07 18:55:00,
2013-01-07 14:00:00,18.4,15.6,30.42,SW,218,0.0,0.0,89,0.00,,OVC,0.00,VWS V14.00,2013-01-07 19:00:00,
2013-01-07 14:05:00,18.6,15.8,30.43,SW,235,1.6,4.8,89,0.00,,OVC,0.00,VWS V14.00,2013-01-07 19:05:00,
2013-01-07 14:10:00,19.0,16.2,30.42,South,188,0.0,4.8,89,0.00,,OVC,0.00,VWS V14.00,2013-01-07 19:10:00,
2013-01-07 14:15:00,19.3,16.4,30.42,SW,235,4.4,6.5,88,0.00,,OVC,0.00,VWS V14.00,2013-01-07 19:15:00,
2013-01-07 14:20:00,19.5,16.7,30.42,SW,221,2.1,6.5,88,0.00,,OVC,0.00,VWS V14.00,2013-01-07 19:20:00,
2013-01-07 14:25:00,19.6,16.7,30.42,WSW,242,3.9,6.5,88,0.00,,OVC,0.00,VWS V14.00,2013-01-07 19:25:00,
2013-01-07 14:30:00,20.0,17.1,30.42,SSW,200,4.0,6.8,88,0.00,,OVC,0.00,VWS V14.00,2013-01-07 19:30:00,
2013-01-07 14:35:00,20.2,17.2,30.42,WSW,253,3.6,6.8,88,0.00,,OVC,0.00,VWS V14.00,2013-01-07 19:35:00,
2013-01-07 14:40:00,20.6,17.5,30.41,SW,221,2.8,7.0,88,0.00,,OVC,0.00,VWS V14.00,2013-01-07 19:40:00,
2013-01-07 14:45:00,20.9,17.7,30.41,SSW,211,3.8,7.0,87,0.00,,OVC,0.00,VWS V14.00,2013-01-07 19:45:00,
2013-01-07 14:50:00,20.8,17.5,30.41,SSW,202,1.4,7.0,87,0.00,,OVC,0.00,VWS V14.00,2013-01-07 19:50:00,
2013-01-07 14:55:00,20.7,17.4,30.41,SSW,204,3.5,7.0,87,0.00,,OVC,0.00,VWS V14.00,2013-01-07 19:55:00,
2013-01-07 15:00:00,20.6,17.2,30.41,WSW,243,3.2,7.9,86,0.00,,OVC,0.00,VWS V14.00,2013-01-07 20:00:00,
2013-01-07 15:05:00,20.9,17.6,30.41,SSW,200,2.7,7.9,87,0.00,,OVC,0.00,VWS V14.00,2013-01-07 20:05:00,
2013-01-07 15:10:00,20.9,17.8,30.41,SW,214,4.2,7.9,87,0.00,,OVC,0.00,VWS V14.00,2013-01-07 20:10:00,
2013-01-07 15:15:00,21.1,18.0,30.41,WSW,242,4.1,8.4,88,0.00,,OVC,0.00,VWS V14.00,2013-01-07 20:15:00,
2013-01-07 15:20:00,21.0,17.9,30.42,SW,221,8.9,10.6,87,0.00,,OVC,0.00,VWS V14.00,2013-01-07 20:20:00,
2013-01-07 15:25:00,20.9,17.6,30.41,SW,221,13.2,13.9,87,0.00,,OVC,0.00,VWS V14.00,2013-01-07 20:25:00,
2013-01-07 15:30:00,20.9,17.6,30.41,WSW,240,8.7,11.3,87,0.00,,OVC,0.00,VWS V14.00,2013-01-07 20:30:00,
2013-01-07 15:35:00,20.6,17.5,30.41,SSW,208,6.4,12.7,88,0.00,,OVC,0.00,VWS V14.00,2013-01-07 20:35:00,
2013-01-07 15:40:00,20.8,17.8,30.41,SW,219,6.8,14.1,88,0.00,,OVC,0.00,VWS V14.00,2013-01-07 20:40:00,
2013-01-07 15:45:00,21.0,18.1,30.41,SSW,197,8.1,14.1,88,0.00,,OVC,0.00,VWS V14.00,2013-01-07 20:45:00,
2013-01-07 15:50:00,21.2,18.3,30.41,SW,236,0.0,14.1,88,0.00,,OVC,0.00,VWS V14.00,2013-01-07 20:50:00,
2013-01-07 15:55:00,21.4,18.5,30.41,SSE,162,5.1,14.1,88,0.00,,OVC,0.00,VWS V14.00,2013-01-07 20:55:00,
2013-01-07 16:00:00,21.6,18.7,30.41,SW,226,5.7,10.3,88,0.00,,OVC,0.00,VWS V14.00,2013-01-07 21:00:00,
2013-01-07 16:05:00,21.6,18.7,30.41,SSW,195,6.3,10.3,88,0.00,,OVC,0.00,VWS V14.00,2013-01-07 21:05:00,
2013-01-07 16:10:00,21.8,18.9,30.40,SSW,201,2.8,10.3,88,0.00,,OVC,0.00,VWS V14.00,2013-01-07 21:10:00,
2013-01-07 16:15:00,21.9,19.0,30.40,South,187,7.1,10.3,88,0.00,,OVC,0.00,VWS V14.00,2013-01-07 21:15:00,
2013-01-07 16:20:00,22.0,19.1,30.40,SSW,197,6.5,10.3,88,0.00,,OVC,0.00,VWS V14.00,2013-01-07 21:20:00,
2013-01-07 16:25:00,22.2,19.3,30.41,SW,221,7.9,10.3,88,0.00,,OVC,0.00,VWS V14.00,2013-01-07 21:25:00,
2013-01-07 16:30:00,22.2,19.4,30.40,SW,231,5.0,10.0,89,0.00,,OVC,0.00,VWS V14.00,2013-01-07 21:30:00,
2013-01-07 16:35:00,22.6,19.8,30.40,South,186,5.6,10.0,89,0.00,,OVC,0.00,VWS V14.00,2013-01-07 21:35:00,
2013-01-07 16:40:00,22.6,19.8,30.40,South,173,5.6,10.0,89,0.00,,OVC,0.00,VWS V14.00,2013-01-07 21:40:00,
2013-01-07 16:45:00,22.6,19.5,30.39,South,170,3.0,10.0,88,0.00,,OVC,0.00,VWS V14.00,2013-01-07 21:45:00,
2013-01-07 16:50:00,22.5,19.4,30.39,South,184,7.0,10.0,88,0.00,,OVC,0.00,VWS V14.00,2013-01-07 21:50:00,
2013-01-07 16:55:00,22.7,19.5,30.39,SSE,163,5.5,10.0,87,0.00,,OVC,0.00,VWS V14.00,2013-01-07 21:55:00,
2013-01-07 17:00:00,22.7,19.5,30.38,South,172,4.6,6.9,87,0.00,,OVC,0.00,VWS V14.00,2013-01-07 22:00:00,
2013-01-07 17:05:00,22.8,19.6,30.38,SSE,158,4.8,7.9,88,0.00,,OVC,0.00,VWS V14.00,2013-01-07 22:05:00,
2013-01-07 17:10:00,23.0,19.8,30.38,SSE,167,3.1,7.9,87,0.00,,OVC,0.00,VWS V14.00,2013-01-07 22:10:00,
2013-01-07 17:15:00,23.0,19.8,30.37,SE,142,4.5,7.9,87,0.00,,OVC,0.00,VWS V14.00,2013-01-07 22:15:00,
2013-01-07 17:30:00,23.3,20.0,30.36,South,179,6.8,6.9,87,0.00,,OVC,0.00,VWS V14.00,2013-01-07 22:30:00,
2013-01-07 17:32:00,23.3,20.0,30.36,South,179,6.8,6.9,87,0.00,,OVC,0.00,VWS V14.00,2013-01-07 22:32:00,
2013-01-07 17:35:00,23.3,20.0,30.36,South,179,6.8,6.9,87,0.00,,OVC,0.00,VWS V14.00,2013-01-07 22:35:00,
2013-01-07 17:40:00,23.3,20.0,30.36,South,179,6.8,6.9,87,0.00,,OVC,0.00,VWS V14.00,2013-01-07 22:40:00,
2013-01-07 18:05:00,24.2,20.5,30.34,South,179,5.8,9.1,85,0.00,,OVC,0.00,VWS V14.00,2013-01-07 23:05:00,
2013-01-07 18:07:00,24.2,20.5,30.34,South,179,5.8,9.1,85,0.00,,OVC,0.00,VWS V14.00,2013-01-07 23:07:00,
2013-01-07 18:10:00,24.2,20.5,30.34,South,179,5.8,9.1,85,0.00,,OVC,0.00,VWS V14.00,2013-01-07 23:10:00,
2013-01-07 18:15:00,24.2,20.5,30.34,South,179,5.8,9.1,85,0.00,,OVC,0.00,VWS V14.00,2013-01-07 23:15:00,
2013-01-07 18:30:00,24.5,20.3,30.34,South,188,7.2,9.1,84,0.00,,OVC,0.00,VWS V14.00,2013-01-07 23:30:00,
2013-01-07 18:32:00,24.5,20.3,30.34,South,188,7.2,9.1,84,0.00,,OVC,0.00,VWS V14.00,2013-01-07 23:32:00,
2013-01-07 18:35:00,24.5,20.3,30.34,South,188,7.2,9.1,84,0.00,,OVC,0.00,VWS V14.00,2013-01-07 23:35:00,
2013-01-07 18:40:00,24.5,20.3,30.34,South,188,7.2,9.1,84,0.00,,OVC,0.00,VWS V14.00,2013-01-07 23:40:00,
2013-01-07 18:55:00,24.7,20.6,30.33,SSE,155,6.8,9.1,84,0.00,,OVC,0.00,VWS V14.00,2013-01-07 23:55:00,
2013-01-07 18:58:00,24.6,20.3,30.33,SSE,166,7.6,9.1,83,0.00,,OVC,0.00,VWS V14.00,2013-01-07 23:58:00,
2013-01-07 19:00:00,24.6,20.3,30.33,SSE,166,7.6,9.1,83,0.00,,OVC,0.00,VWS V14.00,2013-01-08 00:00:00,
2013-01-07 19:05:00,24.6,20.3,30.33,SSE,166,7.6,9.1,83,0.00,,OVC,0.00,VWS V14.00,2013-01-08 00:05:00,
2013-01-07 20:00:00,25.5,21.3,30.29,SW,217,7.6,9.1,84,0.00,,OVC,0.00,VWS V14.00,2013-01-08 01:00:00,
2013-01-07 20:02:00,25.5,21.3,30.29,SW,217,7.6,9.1,84,0.00,,OVC,0.00,VWS V14.00,2013-01-08 01:02:00,
2013-01-07 20:05:00,25.5,21.3,30.29,SW,217,7.6,9.1,84,0.00,,OVC,0.00,VWS V14.00,2013-01-08 01:05:00,
2013-01-07 20:10:00,25.5,21.3,30.29,SW,217,7.6,9.1,84,0.00,,OVC,0.00,VWS V14.00,2013-01-08 01:10:00,
2013-01-07 21:10:00,25.7,21.4,30.26,SW,235,5.3,9.1,83,0.00,,OVC,0.00,VWS V14.00,2013-01-08 02:10:00,
2013-01-07 21:15:00,25.7,21.4,30.26,SW,235,5.3,9.1,83,0.00,,OVC,0.00,VWS V14.00,2013-01-08 02:15:00,
2013-01-07 21:20:00,25.7,21.4,30.26,SW,235,5.3,9.1,83,0.00,,OVC,0.00,VWS V14.00,2013-01-08 02:20:00,
2013-01-07 21:25:00,25.3,21.0,30.26,SSE,155,6.4,9.1,84,0.00,,OVC,0.00,VWS V14.00,2013-01-08 02:25:00,
2013-01-07 21:30:00,25.3,21.0,30.26,SSE,155,6.4,9.1,84,0.00,,OVC,0.00,VWS V14.00,2013-01-08 02:30:00,